カタログに戻る

FENGYUN 1C DEB

LostSSO
NORAD 31897·DEBRIS·🇨🇳 China

打ち上げ May 10, 1999 から Taiyuan Satellite Launch Center

Loading…

次のパス (今後24時間)

TLE

古いSource: Space-Track

元期: Oct 14, 2015, 07:10 UTC

1 31897U 99025CKY 15287.29917184 +.00000532 +00000-0 +26114-3 0  9994
2 31897 098.8324 314.7133 0088884 110.1889 244.1416 14.19824757433011

AllMySatでFENGYUN 1C DEBをリアルタイム追跡

Download on the App Store